Torna al catalogo

CZ-3C DEB

LostGTO
NORAD 40173·DEBRIS·🇨🇳 China

Lanciato Oct 31, 2010 da Xichang Satellite Launch Center

Loading…

TLE

ObsoletoSource: Space-Track

Epoca: Jan 6, 2014, 07:35 UTC

1 40173U 10057AB  14006.31657601  .00019769  00000-0  18039+0 0  9990
2 40173  22.9885 223.5019 7158557 191.9305 131.3613  2.28429479 16405

Traccia CZ-3C DEB in tempo reale con AllMySat

Download on the App Store